Regional Weather Roundup
Issued by NWS

Home | Current Version | Previous Version | Graphics & Text | Print | Product List | Glossary On
Versions: 1 2 3 4 5 6 7 8 9 10 11 12 13 14 15 16 17 18 19 20 21 22 23 24 25 26 27 28 29 30 31 32 33 34 35 36 37 38 39 40 41 42 43 44 45 46 47 48 49 50
000
ASUS43 KLOT 300012
RWRIL

ILLINOIS REGIONAL WEATHER ROUNDUP
NATIONAL WEATHER SERVICE CHICAGO/ROMEOVILLE IL
700 PM CDT MON JUN 29 2015

NOTE: "FAIR" INDICATES FEW OR NO CLOUDS BELOW 12,000 FEET WITH NO
SIGNIFICANT WEATHER AND/OR OBSTRUCTIONS TO VISIBILITY.

* THESE STATIONS ARE NOT UNDER NWS QUALITY CONTROL. THEY ALSO MAY NOT
  REPORT WEATHER SUCH AS PRECIPITATION OR FOG.

ILZ001-002-007-009-015-016-024-300100-
NORTHWEST ILLINOIS

CITY           SKY/WX    TMP DP  RH WIND       PRES   REMARKS
MOLINE         TSTM      76  66  71 CALM      29.80R
6HR MIN TEMP:  72; 6HR MAX TEMP:  81; 6HR PCP:  0.02;

STERLING*      MOSUNNY   75  66  73 W5        29.80R
SAVANNA*       MOSUNNY   76  64  64 E3        29.79S
$$

ILZ003-004-008-010-011-017-018-300100-
NORTH CENTRAL ILLINOIS

CITY           SKY/WX    TMP DP  RH WIND       PRES   REMARKS
ROCKFORD       PTSUNNY   70  64  81 S5        29.81R
6HR MIN TEMP:  68; 6HR MAX TEMP:  78; 6HR PCP:  0.24;

FREEPORT*      MOSUNNY   74  63  67 W3        29.81S
ROCHELLE*      MOSUNNY   71  65  83 CALM      29.81R
DE KALB*       PTSUNNY   68  63  83 CALM      29.82S
PERU*          PTSUNNY   76  63  64 W7        29.80S
$$

ILZ005-006-012>014-019>023-300100-
NORTHEAST ILLINOIS

CITY           SKY/WX    TMP DP  RH WIND       PRES   REMARKS
CHICAGO-OHARE  PTSUNNY   70  63  78 CALM      29.79R
6HR MIN TEMP:  66; 6HR MAX TEMP:  75; 6HR PCP:  0.21;

CHICAGO-MIDWAY PTSUNNY   73  64  73 W7        29.79S
6HR MIN TEMP:  71; 6HR MAX TEMP:  74; 6HR PCP: TRACE;

AURORA         MOSUNNY   71  62  73 SW5       29.81R
6HR MIN TEMP:  68; 6HR MAX TEMP:  75; 6HR PCP:  0.06;

LANSING*       PTSUNNY   71  62  74 CALM      29.81R
JOLIET*        PTSUNNY   71  67  86 CALM      29.80S
WAUKEGAN       MOSUNNY   67  62  84 SE7       29.79S
6HR MIN TEMP:  67; 6HR MAX TEMP:  70; 6HR PCP: TRACE;

DUPAGE AIRPORT PTSUNNY   70  63  78 CALM      29.80R
6HR MIN TEMP:  66; 6HR MAX TEMP:  75; 6HR PCP:  0.82;

KANKAKEE*      PTSUNNY   70  66  86 CALM      29.81S
WHEELING       PTSUNNY   71  62  73 S5        29.81R
6HR MIN TEMP:  70; 6HR MAX TEMP:  75; 6HR PCP:  0.01;

MORRIS*        LGT RAIN  69  65  86 CALM      29.78S
ROMEOVILLE*    PTSUNNY   71  64  79 CALM      29.80S
NORTHERLY ISL    N/A     66  63  90 CALM        N/A
$$

LMZ740>746-300100-
SOUTHERN LAKE MICHIGAN

STATION/POSITION SKY/WX   TEMP    WIND        PRES    VSBY  WAVE
                          AIR SEA DIR/SP/G                  HT/PER
                          (F)     (DEG/KT/KT) (MB)    (MI)  (FT/S)
HARRISON CRIB              64      90/  6/  7   N/A
BURNHAM HARBOR             66      CALM  /  3   N/A
CALUMET HARBOR             66      40/  2/  4   N/A
BURNS HARBOR               68      50/  6/  7 1009.5F
MICHIGAN CITY              67     350/  6/  7   N/A
MICHIGAN CITY 6N           66 67   10/  4/  4   N/A           0
ST. JOSEPH                 68 65                N/A           0
$$

ILZ025>027-034>036-040-047-049-050-058-095>099-300100-
WEST-CENTRAL ILLINOIS

CITY           SKY/WX    TMP DP  RH WIND       PRES   REMARKS
QUINCY         SUNNY     74  65  73 SW3       29.85S
GALESBURG*     MOSUNNY   77  66  68 W6        29.83R
MACOMB*        MOSUNNY   76  68  76 W6        29.85R
JACKSONVILLE*  PTSUNNY   79  69  73 W3        29.83F HX  81
PITTSFIELD*    PTSUNNY   74  68  81 CALM      29.86S
$$

ILZ028>032-037-038-041>044-048-051>054-059>061-300100-
CENTRAL ILLINOIS

CITY           SKY/WX    TMP DP  RH WIND       PRES   REMARKS
PONTIAC        PTSUNNY   73  68  83 NE6       29.82R
BLOOMINGTON    SUNNY     77  64  63 NW13      29.83S
DECATUR        PTSUNNY   76  64  66 W10       29.82F
PEORIA         MOSUNNY   79  63  57 W7        29.82S HX  80
6HR MIN TEMP:  77; 6HR MAX TEMP:  81;

LACON*         MOSUNNY   77  63  63 W6        29.81R
LINCOLN*       MOSUNNY   78  64  62 W6        29.83R HX  80
SPRINGFIELD    PTSUNNY   78  67  68 W6        29.83F HX  80
6HR MIN TEMP:  77; 6HR MAX TEMP:  81;

TAYLORVILLE    CLOUDY    73  64  73 W5        29.83F
$$

ILZ033-039-045-046-055>057-062-063-300100-
EAST-CENTRAL ILLINOIS

CITY           SKY/WX    TMP DP  RH WIND       PRES   REMARKS
CHAMPAIGN      SUNNY     76  65  68 W8        29.81S
DANVILLE*      RAIN      69  65  89 N7        29.80R
RANTOUL*       MOSUNNY   78  66  66 NW8       29.81S HX  80
MATTOON        SUNNY     74  64  71 W9        29.82S
PARIS*         MOSUNNY   76  66  71 W9        29.82R
$$

ILZ079-100>102-300100-
SOUTHWEST ILLINOIS

CITY           SKY/WX    TMP DP  RH WIND       PRES   REMARKS
ALTON          PTSUNNY   75  72  88 NW6       29.85F
BELLEVILLE     MOSUNNY   79  67  68 NE1       29.83F HX  81
CAHOKIA*       LGT RAIN  82  67  60 CALM      29.85R HX  84
SPARTA*        SUNNY     82  65  57 N5        29.86S HX  83
$$

ILZ064>066-069>071-074>076-080>082-084>086-088>090-092>094-300100-
SOUTH-CENTRAL ILLINOIS

CITY           SKY/WX    TMP DP  RH WIND       PRES   REMARKS
CARBONDALE     SUNNY     82  66  58 VRB7      29.85S HX  84
6HR MIN TEMP:  82; 6HR MAX TEMP:  85;

CAIRO*         SUNNY     86  66  51 NW8       29.83S HX  88
EFFINGHAM*     SUNNY     75  62  62 SW5       29.84S
MARION         MOSUNNY   82  66  57 N5        29.85S HX  85
MT. VERNON     SUNNY     79  63  57 NW3       29.85F HX  80
CENTRALIA*     SUNNY     76  63  64 W3        29.85S
SALEM*         SUNNY     78  64  60 W6        29.85S HX  80
METROPOLIS*    SUNNY     84  67  55 NW6       29.85R HX  87
$$

ILZ067-068-072-073-078-083-087-091-300100-
SOUTHEAST ILLINOIS

CITY           SKY/WX    TMP DP  RH WIND       PRES   REMARKS
LAWRENCEVILLE  SUNNY     78  64  61 W15       29.83R HX  80
FLORA*         SUNNY     77  65  65 W5        29.84S
FAIRFIELD*     SUNNY     78  65  64 CALM      29.83S HX  80
HARRISBURG*    SUNNY     80  66  60 NW7       29.86R HX  82
ROBINSON*      MOSUNNY   76  64  66 W10       29.83R
CARMI*         SUNNY     80  60  50 W7        29.84R HX  81
$$

ABBREVIATIONS USED IN REMARKS
   TC - TEMPERATURE IN CELSIUS
  WCI - WIND CHILL INDEX
   HX - HEAT INDEX
  VSB - VISIBILITY
$$



USA.gov is the U.S. government's official web portal to all federal, state and local government web resources and services.